Year,Month,Day,Hour,Minute,Value (Times are PST for temperature in C)
2015,06,28,00,00,25.10
2015,06,28,00,01,25.00
2015,06,28,00,02,25.00
2015,06,28,00,03,25.00
2015,06,28,00,04,24.90
2015,06,28,00,05,24.90
2015,06,28,00,06,24.80
2015,06,28,00,07,24.80
2015,06,28,00,08,24.80
2015,06,28,00,09,24.80
2015,06,28,00,10,24.80
2015,06,28,00,11,24.80
2015,06,28,00,12,24.80
2015,06,28,00,13,24.80
2015,06,28,00,14,24.80
2015,06,28,00,15,24.80
2015,06,28,00,16,24.80
2015,06,28,00,17,24.80
2015,06,28,00,18,24.80
2015,06,28,00,19,24.80
2015,06,28,00,20,24.80
2015,06,28,00,21,24.80
2015,06,28,00,22,24.70
2015,06,28,00,23,24.70
2015,06,28,00,24,24.70
2015,06,28,00,25,24.60
2015,06,28,00,26,24.50
2015,06,28,00,27,24.40
2015,06,28,00,28,24.30
2015,06,28,00,29,24.20
2015,06,28,00,30,24.10
2015,06,28,00,31,24.00
2015,06,28,00,32,23.90
2015,06,28,00,33,23.80
2015,06,28,00,34,23.80
2015,06,28,00,35,23.70
2015,06,28,00,36,23.60
2015,06,28,00,37,23.60
2015,06,28,00,38,23.50
2015,06,28,00,39,23.40
2015,06,28,00,40,23.40
2015,06,28,00,41,23.30
2015,06,28,00,42,23.20
2015,06,28,00,43,23.20
2015,06,28,00,44,23.10
2015,06,28,00,45,23.00
2015,06,28,00,46,23.00
2015,06,28,00,47,22.90
2015,06,28,00,48,22.90
2015,06,28,00,49,22.90
2015,06,28,00,50,22.80
2015,06,28,00,51,22.80
2015,06,28,00,52,22.70
2015,06,28,00,53,22.70
2015,06,28,00,54,22.70
2015,06,28,00,55,22.60
2015,06,28,00,56,22.60
2015,06,28,00,57,22.60
2015,06,28,00,58,22.50
2015,06,28,00,59,22.50
2015,06,28,01,00,22.50
2015,06,28,01,01,22.40
2015,06,28,01,02,22.40
2015,06,28,01,03,22.40
2015,06,28,01,04,22.40
2015,06,28,01,05,22.30
2015,06,28,01,06,22.30
2015,06,28,01,07,22.30
2015,06,28,01,08,22.30
2015,06,28,01,09,22.20
2015,06,28,01,10,22.20
2015,06,28,01,11,22.20
2015,06,28,01,12,22.20
2015,06,28,01,13,22.20
2015,06,28,01,14,22.20
2015,06,28,01,15,22.20
2015,06,28,01,16,22.20
2015,06,28,01,17,22.20
2015,06,28,01,18,22.20
2015,06,28,01,19,22.20
2015,06,28,01,20,22.20
2015,06,28,01,21,22.20
2015,06,28,01,22,22.20
2015,06,28,01,23,22.20
2015,06,28,01,24,22.20
2015,06,28,01,25,22.20
2015,06,28,01,26,22.30
2015,06,28,01,27,22.30
2015,06,28,01,28,22.40
2015,06,28,01,29,22.40
2015,06,28,01,30,22.40
2015,06,28,01,31,22.50
2015,06,28,01,32,22.60
2015,06,28,01,33,22.60
2015,06,28,01,34,22.60
2015,06,28,01,35,22.70
2015,06,28,01,36,22.70
2015,06,28,01,37,22.80
2015,06,28,01,38,22.80
2015,06,28,01,39,22.90
2015,06,28,01,40,22.90
2015,06,28,01,41,23.00
2015,06,28,01,42,23.00
2015,06,28,01,43,23.10
2015,06,28,01,44,23.10
2015,06,28,01,45,23.20
2015,06,28,01,46,23.20
2015,06,28,01,47,23.20
2015,06,28,01,48,23.20
2015,06,28,01,49,23.20
2015,06,28,01,50,23.30
2015,06,28,01,51,23.30
2015,06,28,01,52,23.30
2015,06,28,01,53,23.30
2015,06,28,01,54,23.30
2015,06,28,01,55,23.30
2015,06,28,01,56,23.30
2015,06,28,01,57,23.40
2015,06,28,01,58,23.40
2015,06,28,01,59,23.40
2015,06,28,02,00,23.40
2015,06,28,02,01,23.40
2015,06,28,02,02,23.40
2015,06,28,02,03,23.50
2015,06,28,02,04,23.50
2015,06,28,02,05,23.50
2015,06,28,02,06,23.50
2015,06,28,02,07,23.50
2015,06,28,02,08,23.50
2015,06,28,02,09,23.50
2015,06,28,02,10,23.50
2015,06,28,02,11,23.50
2015,06,28,02,12,23.50
2015,06,28,02,13,23.50
2015,06,28,02,14,23.40
2015,06,28,02,15,23.40
2015,06,28,02,16,23.40
2015,06,28,02,17,23.40
2015,06,28,02,18,23.40
2015,06,28,02,19,23.40
2015,06,28,02,20,23.40
2015,06,28,02,21,23.40
2015,06,28,02,22,23.40
2015,06,28,02,23,23.50
2015,06,28,02,24,23.50
2015,06,28,02,25,23.50
2015,06,28,02,26,23.50
2015,06,28,02,27,23.50
2015,06,28,02,28,23.50
2015,06,28,02,29,23.50
2015,06,28,02,30,23.60
2015,06,28,02,31,23.60
2015,06,28,02,32,23.50
2015,06,28,02,33,23.50
2015,06,28,02,34,23.60
2015,06,28,02,35,23.60
2015,06,28,02,36,23.60
2015,06,28,02,37,23.60
2015,06,28,02,38,23.60
2015,06,28,02,39,23.60
2015,06,28,02,40,23.60
2015,06,28,02,41,23.60
2015,06,28,02,42,23.60
2015,06,28,02,43,23.60
2015,06,28,02,44,23.60
2015,06,28,02,45,23.60
2015,06,28,02,46,23.60
2015,06,28,02,47,23.60
2015,06,28,02,48,23.60
2015,06,28,02,49,23.60
2015,06,28,02,50,23.50
2015,06,28,02,51,23.50
2015,06,28,02,52,23.50
2015,06,28,02,53,23.50
2015,06,28,02,54,23.50
2015,06,28,02,55,23.50
2015,06,28,02,56,23.50
2015,06,28,02,57,23.50
2015,06,28,02,58,23.40
2015,06,28,02,59,23.40
2015,06,28,03,00,23.40
2015,06,28,03,01,23.40
2015,06,28,03,02,23.40
2015,06,28,03,06,23.40
2015,06,28,03,07,23.40
2015,06,28,03,08,23.40
2015,06,28,03,09,23.40
2015,06,28,03,10,23.40
2015,06,28,03,11,23.40
2015,06,28,03,12,23.40
2015,06,28,03,13,23.40
2015,06,28,03,14,23.40
2015,06,28,03,15,23.40
2015,06,28,03,16,23.50
2015,06,28,03,17,23.50
2015,06,28,03,18,23.50
2015,06,28,03,19,23.50
2015,06,28,03,20,23.50
2015,06,28,03,21,23.40
2015,06,28,03,22,23.40
2015,06,28,03,23,23.40
2015,06,28,03,24,23.40
2015,06,28,03,25,23.40
2015,06,28,03,26,23.40
2015,06,28,03,27,23.40
2015,06,28,03,28,23.40
2015,06,28,03,29,23.40
2015,06,28,03,30,23.40
2015,06,28,03,31,23.40
2015,06,28,03,32,23.40
2015,06,28,03,33,23.40
2015,06,28,03,34,23.40
2015,06,28,03,35,23.40
2015,06,28,03,36,23.40
2015,06,28,03,37,23.30
2015,06,28,03,38,23.30
2015,06,28,03,39,23.30
2015,06,28,03,40,23.30
2015,06,28,03,41,23.30
2015,06,28,03,42,23.30
2015,06,28,03,43,23.20
2015,06,28,03,44,23.20
2015,06,28,03,45,23.20
2015,06,28,03,46,23.20
2015,06,28,03,47,23.20
2015,06,28,03,48,23.10
2015,06,28,03,49,23.10
2015,06,28,03,50,23.10
2015,06,28,03,51,23.00
2015,06,28,03,52,23.00
2015,06,28,03,53,23.00
2015,06,28,03,54,22.90
2015,06,28,03,55,22.90
2015,06,28,03,56,22.90
2015,06,28,03,57,22.90
2015,06,28,03,58,22.90
2015,06,28,03,59,22.90
2015,06,28,04,00,22.90
2015,06,28,04,01,22.90
2015,06,28,04,02,22.90
2015,06,28,04,03,22.90
2015,06,28,04,04,23.00
2015,06,28,04,05,23.10
2015,06,28,04,06,23.10
2015,06,28,04,07,23.10
2015,06,28,04,08,23.10
2015,06,28,04,09,23.20
2015,06,28,04,10,23.20
2015,06,28,04,11,23.30
2015,06,28,04,12,23.30
2015,06,28,04,13,23.30
2015,06,28,04,14,23.30
2015,06,28,04,15,23.30
2015,06,28,04,16,23.30
2015,06,28,04,17,23.30
2015,06,28,04,18,23.30
2015,06,28,04,19,23.20
2015,06,28,04,20,23.30
2015,06,28,04,21,23.30
2015,06,28,04,22,23.30
2015,06,28,04,23,23.30
2015,06,28,04,24,23.30
2015,06,28,04,25,23.30
2015,06,28,04,26,23.30
2015,06,28,04,27,23.30
2015,06,28,04,28,23.40
2015,06,28,04,29,23.40
2015,06,28,04,30,23.30
2015,06,28,04,31,23.30
2015,06,28,04,32,23.30
2015,06,28,04,33,23.40
2015,06,28,04,34,23.40
2015,06,28,04,35,23.40
2015,06,28,04,36,23.40
2015,06,28,04,37,23.30
2015,06,28,04,38,23.30
2015,06,28,04,39,23.30
2015,06,28,04,40,23.30
2015,06,28,04,41,23.30
2015,06,28,04,42,23.30
2015,06,28,04,43,23.30
2015,06,28,04,44,23.30
2015,06,28,04,45,23.20
2015,06,28,04,46,23.20
2015,06,28,04,47,23.20
2015,06,28,04,48,23.20
2015,06,28,04,49,23.20
2015,06,28,04,50,23.20
2015,06,28,04,51,23.10
2015,06,28,04,52,23.10
2015,06,28,04,53,23.20
2015,06,28,04,54,23.20
2015,06,28,04,55,23.20
2015,06,28,04,56,23.20
2015,06,28,04,57,23.20
2015,06,28,04,58,23.20
2015,06,28,04,59,23.20
2015,06,28,05,00,23.20
2015,06,28,05,01,23.20
2015,06,28,05,02,23.20
2015,06,28,05,03,23.20
2015,06,28,05,04,23.10
2015,06,28,05,05,23.10
2015,06,28,05,06,23.10
2015,06,28,05,07,23.10
2015,06,28,05,08,23.10
2015,06,28,05,09,23.10
2015,06,28,05,10,23.10
2015,06,28,05,11,23.10
2015,06,28,05,12,23.10
2015,06,28,05,13,23.10
2015,06,28,05,14,23.10
2015,06,28,05,15,23.10
2015,06,28,05,16,23.00
2015,06,28,05,17,23.00
2015,06,28,05,18,22.90
2015,06,28,05,19,22.90
2015,06,28,05,20,22.90
2015,06,28,05,21,22.90
2015,06,28,05,22,22.90
2015,06,28,05,23,22.90
2015,06,28,05,24,22.90
2015,06,28,05,25,22.90
2015,06,28,05,26,22.90
2015,06,28,05,27,22.90
2015,06,28,05,28,22.90
2015,06,28,05,29,22.90
2015,06,28,05,30,23.00
2015,06,28,05,31,23.00
2015,06,28,05,32,23.00
2015,06,28,05,33,23.10
2015,06,28,05,34,23.10
2015,06,28,05,35,23.10
2015,06,28,05,36,23.10
2015,06,28,05,37,23.10
2015,06,28,05,38,23.10
2015,06,28,05,39,23.10
2015,06,28,05,40,23.00
2015,06,28,05,41,23.00
2015,06,28,05,42,23.00
2015,06,28,05,43,23.00
2015,06,28,05,44,23.00
2015,06,28,05,45,23.00
2015,06,28,05,46,22.90
2015,06,28,05,47,22.90
2015,06,28,05,48,22.90
2015,06,28,05,49,22.80
2015,06,28,05,50,22.80
2015,06,28,05,51,22.80
2015,06,28,05,52,22.90
2015,06,28,05,53,22.80
2015,06,28,05,54,22.80
2015,06,28,05,55,22.80
2015,06,28,05,56,22.80
2015,06,28,05,57,22.80
2015,06,28,05,58,22.80
2015,06,28,05,59,22.80
2015,06,28,06,00,22.80
2015,06,28,06,01,22.80
2015,06,28,06,02,22.80
2015,06,28,06,03,22.80
2015,06,28,06,04,22.80
2015,06,28,06,05,22.90
2015,06,28,06,06,22.90
2015,06,28,06,07,22.90
2015,06,28,06,08,22.90
2015,06,28,06,09,22.90
2015,06,28,06,10,22.90
2015,06,28,06,11,22.90
2015,06,28,06,12,22.90
2015,06,28,06,13,22.90
2015,06,28,06,14,22.90
2015,06,28,06,15,22.90
2015,06,28,06,16,23.00
2015,06,28,06,17,23.10
2015,06,28,06,18,23.10
2015,06,28,06,19,23.10
2015,06,28,06,20,23.10
2015,06,28,06,21,23.10
2015,06,28,06,22,23.10
2015,06,28,06,23,23.10
2015,06,28,06,24,23.10
2015,06,28,06,25,23.10
2015,06,28,06,26,23.00
2015,06,28,06,27,23.00
2015,06,28,06,28,23.00
2015,06,28,06,29,22.90
2015,06,28,06,30,22.80
2015,06,28,06,31,22.80
2015,06,28,06,32,22.80
2015,06,28,06,33,22.80
2015,06,28,06,34,22.70
2015,06,28,06,35,22.70
2015,06,28,06,36,22.70
2015,06,28,06,37,22.70
2015,06,28,06,38,22.60
2015,06,28,06,39,22.60
2015,06,28,06,40,22.60
2015,06,28,06,41,22.60
2015,06,28,06,42,22.60
2015,06,28,06,43,22.50
2015,06,28,06,44,22.50
2015,06,28,06,45,22.50
2015,06,28,06,46,22.50
2015,06,28,06,47,22.50
2015,06,28,06,48,22.50
2015,06,28,06,49,22.50
2015,06,28,06,50,22.50
2015,06,28,06,51,22.50
2015,06,28,06,52,22.50
2015,06,28,06,53,22.50
2015,06,28,06,54,22.50
2015,06,28,06,55,22.50
2015,06,28,06,56,22.50
2015,06,28,06,57,22.40
2015,06,28,06,58,22.40
2015,06,28,06,59,22.40
2015,06,28,07,00,22.40
2015,06,28,07,01,22.40
2015,06,28,07,02,22.40
2015,06,28,07,03,22.50
2015,06,28,07,04,22.50
2015,06,28,07,05,22.50
2015,06,28,07,06,22.60
2015,06,28,07,07,22.60
2015,06,28,07,08,22.70
2015,06,28,07,09,22.70
2015,06,28,07,10,22.70
2015,06,28,07,11,22.80
2015,06,28,07,12,22.80
2015,06,28,07,13,22.90
2015,06,28,07,14,22.90
2015,06,28,07,15,23.00
2015,06,28,07,16,23.10
2015,06,28,07,17,23.10
2015,06,28,07,18,23.20
2015,06,28,07,19,23.20
2015,06,28,07,20,23.30
2015,06,28,07,21,23.30
2015,06,28,07,22,23.40
2015,06,28,07,23,23.50
2015,06,28,07,24,23.50
2015,06,28,07,25,23.60
2015,06,28,07,26,23.60
2015,06,28,07,27,23.60
2015,06,28,07,28,23.70
2015,06,28,07,29,23.70
2015,06,28,07,30,23.70
2015,06,28,07,31,23.70
2015,06,28,07,32,23.80
2015,06,28,07,33,23.80
2015,06,28,07,34,23.90
2015,06,28,07,35,23.90
2015,06,28,07,36,23.90
2015,06,28,07,37,23.90
2015,06,28,07,38,23.90
2015,06,28,07,39,24.00
2015,06,28,07,40,24.00
2015,06,28,07,41,24.00
2015,06,28,07,42,24.00
2015,06,28,07,43,24.00
2015,06,28,07,44,24.10
2015,06,28,07,45,24.10
2015,06,28,07,46,24.20
2015,06,28,07,47,24.20
2015,06,28,07,48,24.20
2015,06,28,07,49,24.20
2015,06,28,07,50,24.30
2015,06,28,07,51,24.30
2015,06,28,07,52,24.30
2015,06,28,07,53,24.30
2015,06,28,07,54,24.30
2015,06,28,07,55,24.30
2015,06,28,07,56,24.30
2015,06,28,07,57,24.40
2015,06,28,07,58,24.40
2015,06,28,07,59,24.40
2015,06,28,08,00,24.40
2015,06,28,08,01,24.50
2015,06,28,08,02,24.50
2015,06,28,08,03,24.60
2015,06,28,08,04,24.60
2015,06,28,08,05,24.60
2015,06,28,08,06,24.60
2015,06,28,08,07,24.60
2015,06,28,08,08,24.60
2015,06,28,08,09,24.60
2015,06,28,08,10,24.60
2015,06,28,08,11,24.60
2015,06,28,08,12,24.70
2015,06,28,08,13,24.70
2015,06,28,08,14,24.70
2015,06,28,08,15,24.80
2015,06,28,08,16,24.80
2015,06,28,08,17,24.80
2015,06,28,08,18,24.80
2015,06,28,08,19,24.90
2015,06,28,08,20,24.90
2015,06,28,08,21,24.90
2015,06,28,08,22,24.90
2015,06,28,08,23,25.00
2015,06,28,08,24,25.00
2015,06,28,08,25,25.00
2015,06,28,08,26,25.10
2015,06,28,08,27,25.10
2015,06,28,08,28,25.10
2015,06,28,08,29,25.10
2015,06,28,08,30,25.20
2015,06,28,08,31,25.20
2015,06,28,08,32,25.20
2015,06,28,08,33,25.30
2015,06,28,08,34,25.30
2015,06,28,08,35,25.30
2015,06,28,08,36,25.30
2015,06,28,08,37,25.30
2015,06,28,08,38,25.30
2015,06,28,08,39,25.30
2015,06,28,08,40,25.30
2015,06,28,08,41,25.30
2015,06,28,08,42,25.40
2015,06,28,08,43,25.40
2015,06,28,08,44,25.40
2015,06,28,08,45,25.40
2015,06,28,08,46,25.40
2015,06,28,08,47,25.40
2015,06,28,08,48,25.50
2015,06,28,08,49,25.50
2015,06,28,08,50,25.60
2015,06,28,08,51,25.70
2015,06,28,08,52,25.70
2015,06,28,08,53,25.70
2015,06,28,08,54,25.80
2015,06,28,08,55,25.80
2015,06,28,08,56,25.80
2015,06,28,08,57,25.90
2015,06,28,08,58,25.90
2015,06,28,08,59,25.90
2015,06,28,09,00,26.00
2015,06,28,09,01,26.00
2015,06,28,09,02,26.10
2015,06,28,09,03,26.20
2015,06,28,09,04,26.20
2015,06,28,09,05,26.30
2015,06,28,09,06,26.30
2015,06,28,09,07,26.40
2015,06,28,09,08,26.40
2015,06,28,09,09,26.50
2015,06,28,09,10,26.50
2015,06,28,09,11,26.50
2015,06,28,09,12,26.50
2015,06,28,09,13,26.50
2015,06,28,09,14,26.50
2015,06,28,09,15,26.50
2015,06,28,09,16,26.50
2015,06,28,09,17,26.50
2015,06,28,09,18,26.50
2015,06,28,09,19,26.60
2015,06,28,09,20,26.60
2015,06,28,09,21,26.60
2015,06,28,09,22,26.60
2015,06,28,09,23,26.60
2015,06,28,09,24,26.60
2015,06,28,09,25,26.60
2015,06,28,09,26,26.60
2015,06,28,09,27,26.60
2015,06,28,09,28,26.70
2015,06,28,09,29,26.70
2015,06,28,09,30,26.70
2015,06,28,09,31,26.70
2015,06,28,09,32,26.70
2015,06,28,09,33,26.70
2015,06,28,09,34,26.70
2015,06,28,09,35,26.70
2015,06,28,09,36,26.70
2015,06,28,09,37,26.70
2015,06,28,09,38,26.70
2015,06,28,09,39,26.80
2015,06,28,09,40,26.80
2015,06,28,09,41,26.80
2015,06,28,09,42,26.80
2015,06,28,09,43,26.80
2015,06,28,09,44,26.80
2015,06,28,09,45,26.80
2015,06,28,09,46,26.80
2015,06,28,09,47,26.80
2015,06,28,09,48,26.80
2015,06,28,09,49,26.80
2015,06,28,09,50,26.80
2015,06,28,09,51,26.80
2015,06,28,09,52,26.90
2015,06,28,09,53,27.00
2015,06,28,09,54,27.00
2015,06,28,09,55,27.10
2015,06,28,09,56,27.20
2015,06,28,09,57,27.20
2015,06,28,09,58,27.30
2015,06,28,09,59,27.30
2015,06,28,10,00,27.40
2015,06,28,10,01,27.40
2015,06,28,10,02,27.50
2015,06,28,10,03,27.60
2015,06,28,10,04,27.60
2015,06,28,10,05,27.70
2015,06,28,10,06,27.70
2015,06,28,10,07,27.80
2015,06,28,10,08,27.80
2015,06,28,10,09,27.80
2015,06,28,10,10,27.80
2015,06,28,10,11,27.80
2015,06,28,10,12,27.90
2015,06,28,10,13,27.90
2015,06,28,10,14,28.00
2015,06,28,10,15,28.00
2015,06,28,10,16,28.00
2015,06,28,10,17,28.00
2015,06,28,10,18,28.00
2015,06,28,10,19,28.00
2015,06,28,10,20,28.00
2015,06,28,10,21,28.10
2015,06,28,10,22,28.10
2015,06,28,10,23,28.10
2015,06,28,10,24,28.10
2015,06,28,10,25,28.20
2015,06,28,10,26,28.20
2015,06,28,10,27,28.30
2015,06,28,10,28,28.30
2015,06,28,10,29,28.40
2015,06,28,10,30,28.50
2015,06,28,10,31,28.50
2015,06,28,10,32,28.60
2015,06,28,10,33,28.60
2015,06,28,10,34,28.60
2015,06,28,10,35,28.70
2015,06,28,10,36,28.80
2015,06,28,10,37,28.80
2015,06,28,10,38,28.90
2015,06,28,10,39,29.00
2015,06,28,10,40,29.10
2015,06,28,10,41,29.10
2015,06,28,10,42,29.20
2015,06,28,10,43,29.20
2015,06,28,10,44,29.30
2015,06,28,10,45,29.30
2015,06,28,10,46,29.40
2015,06,28,10,47,29.50
2015,06,28,10,48,29.50
2015,06,28,10,49,29.60
2015,06,28,10,50,29.70
2015,06,28,10,51,29.70
2015,06,28,10,52,29.70
2015,06,28,10,53,29.80
2015,06,28,10,54,29.80
2015,06,28,10,55,29.80
2015,06,28,10,56,29.70
2015,06,28,10,57,29.70
2015,06,28,10,58,29.60
2015,06,28,10,59,29.50
2015,06,28,11,00,29.50
2015,06,28,11,01,29.40
2015,06,28,11,02,29.30
2015,06,28,11,03,29.30
2015,06,28,11,04,29.30
2015,06,28,11,05,29.30
2015,06,28,11,06,29.30
2015,06,28,11,07,29.40
2015,06,28,11,08,29.40
2015,06,28,11,09,29.40
2015,06,28,11,10,29.40
2015,06,28,11,11,29.30
2015,06,28,11,12,29.30
2015,06,28,11,13,29.30
2015,06,28,11,14,29.30
2015,06,28,11,15,29.30
2015,06,28,11,16,29.30
2015,06,28,11,17,29.30
2015,06,28,11,18,29.40
2015,06,28,11,19,29.40
2015,06,28,11,20,29.40
2015,06,28,11,21,29.50
2015,06,28,11,22,29.50
2015,06,28,11,23,29.50
2015,06,28,11,24,29.50
2015,06,28,11,25,29.60
2015,06,28,11,26,29.60
2015,06,28,11,27,29.60
2015,06,28,11,28,29.60
2015,06,28,11,29,29.60
2015,06,28,11,30,29.60
2015,06,28,11,31,29.60
2015,06,28,11,32,29.60
2015,06,28,11,33,29.60
2015,06,28,11,34,29.60
2015,06,28,11,35,29.60
2015,06,28,11,36,29.70
2015,06,28,11,37,29.70
2015,06,28,11,38,29.70
2015,06,28,11,39,29.70
2015,06,28,11,40,29.70
2015,06,28,11,41,29.70
2015,06,28,11,42,29.70
2015,06,28,11,43,29.80
2015,06,28,11,44,29.80
2015,06,28,11,45,29.80
2015,06,28,11,46,29.90
2015,06,28,11,47,30.00
2015,06,28,11,48,30.00
2015,06,28,11,49,30.10
2015,06,28,11,50,30.20
2015,06,28,11,51,30.20
2015,06,28,11,52,30.30
2015,06,28,11,53,30.30
2015,06,28,11,54,30.40
2015,06,28,11,55,30.40
2015,06,28,11,56,30.40
2015,06,28,11,57,30.40
2015,06,28,11,58,30.40
2015,06,28,11,59,30.40
2015,06,28,12,00,30.40
2015,06,28,12,01,30.40
2015,06,28,12,02,30.30
2015,06,28,12,03,30.30
2015,06,28,12,04,30.30
2015,06,28,12,05,30.30
2015,06,28,12,06,30.30
2015,06,28,12,07,30.30
2015,06,28,12,08,30.30
2015,06,28,12,09,30.30
2015,06,28,12,10,30.30
2015,06,28,12,11,30.30
2015,06,28,12,12,30.40
2015,06,28,12,13,30.50
2015,06,28,12,14,30.60
2015,06,28,12,15,30.70
2015,06,28,12,16,30.80
2015,06,28,12,17,30.80
2015,06,28,12,18,30.90
2015,06,28,12,19,31.00
2015,06,28,12,20,31.10
2015,06,28,12,21,31.20
2015,06,28,12,22,31.30
2015,06,28,12,23,31.40
2015,06,28,12,24,31.40
2015,06,28,12,25,31.50
2015,06,28,12,26,31.60
2015,06,28,12,27,31.70
2015,06,28,12,28,31.70
2015,06,28,12,29,31.70
2015,06,28,12,30,31.80
2015,06,28,12,31,31.80
2015,06,28,12,32,31.80
2015,06,28,12,33,31.90
2015,06,28,12,34,31.90
2015,06,28,12,35,31.90
2015,06,28,12,36,31.90
2015,06,28,12,37,31.80
2015,06,28,12,38,31.80
2015,06,28,12,39,31.70
2015,06,28,12,40,31.70
2015,06,28,12,41,31.70
2015,06,28,12,42,31.60
2015,06,28,12,43,31.60
2015,06,28,12,44,31.60
2015,06,28,12,45,31.50
2015,06,28,12,46,31.50
2015,06,28,12,47,31.40
2015,06,28,12,48,31.40
2015,06,28,12,49,31.30
2015,06,28,12,50,31.30
2015,06,28,12,51,31.30
2015,06,28,12,52,31.30
2015,06,28,12,53,31.30
2015,06,28,12,54,31.20
2015,06,28,12,55,31.20
2015,06,28,12,56,31.20
2015,06,28,12,57,31.20
2015,06,28,12,58,31.20
2015,06,28,12,59,31.20
2015,06,28,13,00,31.20
2015,06,28,13,01,31.20
2015,06,28,13,02,31.20
2015,06,28,13,03,31.30
2015,06,28,13,04,31.40
2015,06,28,13,05,31.50
2015,06,28,13,06,31.60
2015,06,28,13,07,31.60
2015,06,28,13,08,31.60
2015,06,28,13,09,31.60
2015,06,28,13,10,31.60
2015,06,28,13,11,31.60
2015,06,28,13,12,31.50
2015,06,28,13,13,31.50
2015,06,28,13,14,31.50
2015,06,28,13,15,31.40
2015,06,28,13,16,31.40
2015,06,28,13,17,31.40
2015,06,28,13,18,31.40
2015,06,28,13,19,31.40
2015,06,28,13,20,31.30
2015,06,28,13,21,31.30
2015,06,28,13,22,31.30
2015,06,28,13,23,31.30
2015,06,28,13,24,31.30
2015,06,28,13,25,31.30
2015,06,28,13,26,31.30
2015,06,28,13,27,31.30
2015,06,28,13,28,31.30
2015,06,28,13,29,31.30
2015,06,28,13,30,31.30
2015,06,28,13,31,31.30
2015,06,28,13,32,31.30
2015,06,28,13,33,31.30
2015,06,28,13,34,31.30
2015,06,28,13,35,31.30
2015,06,28,13,36,31.20
2015,06,28,13,37,31.20
2015,06,28,13,38,31.10
2015,06,28,13,39,31.20
2015,06,28,13,40,31.20
2015,06,28,13,41,31.20
2015,06,28,13,42,31.20
2015,06,28,13,43,31.10
2015,06,28,13,44,31.00
2015,06,28,13,45,30.90
2015,06,28,13,46,30.80
2015,06,28,13,47,30.70
2015,06,28,13,48,30.60
2015,06,28,13,49,30.50
2015,06,28,13,50,30.40
2015,06,28,13,51,30.40
2015,06,28,13,52,30.40
2015,06,28,13,53,30.40
2015,06,28,13,54,30.40
2015,06,28,13,55,30.40
2015,06,28,13,56,30.40
2015,06,28,13,57,30.40
2015,06,28,13,58,30.40
2015,06,28,13,59,30.30
2015,06,28,14,00,30.10
2015,06,28,14,01,30.10
2015,06,28,14,02,30.00
2015,06,28,14,03,30.00
2015,06,28,14,04,29.90
2015,06,28,14,05,29.80
2015,06,28,14,06,29.70
2015,06,28,14,07,29.70
2015,06,28,14,08,29.70
2015,06,28,14,09,29.80
2015,06,28,14,10,29.80
2015,06,28,14,11,29.80
2015,06,28,14,12,29.80
2015,06,28,14,13,29.80
2015,06,28,14,14,29.80
2015,06,28,14,15,29.70
2015,06,28,14,16,29.70
2015,06,28,14,17,29.70
2015,06,28,14,18,29.60
2015,06,28,14,19,29.60
2015,06,28,14,20,29.60
2015,06,28,14,21,29.70
2015,06,28,14,22,29.70
2015,06,28,14,23,29.80
2015,06,28,14,24,29.80
2015,06,28,14,25,29.80
2015,06,28,14,26,29.90
2015,06,28,14,27,30.00
2015,06,28,14,28,30.10
2015,06,28,14,29,30.20
2015,06,28,14,30,30.20
2015,06,28,14,31,30.10
2015,06,28,14,32,30.10
2015,06,28,14,33,29.90
2015,06,28,14,34,29.90
2015,06,28,14,35,29.90
2015,06,28,14,36,29.90
2015,06,28,14,37,29.90
2015,06,28,14,38,30.00
2015,06,28,14,39,30.10
2015,06,28,14,40,30.10
2015,06,28,14,41,30.10
2015,06,28,14,42,30.20
2015,06,28,14,43,30.20
2015,06,28,14,44,30.20
2015,06,28,14,45,30.20
2015,06,28,14,46,30.20
2015,06,28,14,47,30.20
2015,06,28,14,48,30.10
2015,06,28,14,49,30.00
2015,06,28,14,50,30.00
2015,06,28,14,51,30.00
2015,06,28,14,52,30.10
2015,06,28,14,53,30.10
2015,06,28,14,54,30.10
2015,06,28,14,55,30.10
2015,06,28,14,56,30.10
2015,06,28,14,57,30.10
2015,06,28,14,58,30.10
2015,06,28,14,59,30.10
2015,06,28,15,00,30.10
2015,06,28,15,01,30.10
2015,06,28,15,02,30.10
2015,06,28,15,03,30.10
2015,06,28,15,04,30.10
2015,06,28,15,05,30.10
2015,06,28,15,06,30.10
2015,06,28,15,07,30.10
2015,06,28,15,08,30.10
2015,06,28,15,09,30.10
2015,06,28,15,10,30.00
2015,06,28,15,11,30.00
2015,06,28,15,12,30.00
2015,06,28,15,13,30.00
2015,06,28,15,14,29.90
2015,06,28,15,15,29.90
2015,06,28,15,16,29.90
2015,06,28,15,17,29.90
2015,06,28,15,18,29.90
2015,06,28,15,19,29.90
2015,06,28,15,20,29.90
2015,06,28,15,21,29.90
2015,06,28,15,22,29.80
2015,06,28,15,23,29.80
2015,06,28,15,24,29.70
2015,06,28,15,25,29.50
2015,06,28,15,26,29.40
2015,06,28,15,27,29.40
2015,06,28,15,28,29.40
2015,06,28,15,29,29.40
2015,06,28,15,30,29.40
2015,06,28,15,31,29.30
2015,06,28,15,32,29.30
2015,06,28,15,33,29.40
2015,06,28,15,34,29.40
2015,06,28,15,35,29.30
2015,06,28,15,36,29.30
2015,06,28,15,37,29.20
2015,06,28,15,38,29.20
2015,06,28,15,39,29.20
2015,06,28,15,40,29.10
2015,06,28,15,41,29.10
2015,06,28,15,42,29.10
2015,06,28,15,43,29.10
2015,06,28,15,44,29.00
2015,06,28,15,45,29.10
2015,06,28,15,46,29.00
2015,06,28,15,47,29.00
2015,06,28,15,48,29.10
2015,06,28,15,49,29.10
2015,06,28,15,50,29.20
2015,06,28,15,51,29.20
2015,06,28,15,52,29.30
2015,06,28,15,53,29.30
2015,06,28,15,54,29.30
2015,06,28,15,55,29.20
2015,06,28,15,56,29.20
2015,06,28,15,57,29.20
2015,06,28,15,58,29.20
2015,06,28,15,59,29.20
2015,06,28,16,00,29.20
2015,06,28,16,01,29.20
2015,06,28,16,02,29.30
2015,06,28,16,03,29.30
2015,06,28,16,04,29.40
2015,06,28,16,05,29.40
2015,06,28,16,06,29.40
2015,06,28,16,07,29.40
2015,06,28,16,08,29.30
2015,06,28,16,09,29.30
2015,06,28,16,10,29.30
2015,06,28,16,11,29.20
2015,06,28,16,12,29.20
2015,06,28,16,13,29.20
2015,06,28,16,14,29.20
2015,06,28,16,15,29.30
2015,06,28,16,16,29.30
2015,06,28,16,17,29.30
2015,06,28,16,18,29.30
2015,06,28,16,19,29.30
2015,06,28,16,20,29.40
2015,06,28,16,21,29.40
2015,06,28,16,22,29.40
2015,06,28,16,23,29.40
2015,06,28,16,24,29.40
2015,06,28,16,25,29.40
2015,06,28,16,26,29.40
2015,06,28,16,27,29.50
2015,06,28,16,28,29.60
2015,06,28,16,29,29.60
2015,06,28,16,30,29.60
2015,06,28,16,31,29.50
2015,06,28,16,32,29.50
2015,06,28,16,33,29.40
2015,06,28,16,34,29.20
2015,06,28,16,35,29.00
2015,06,28,16,36,28.80
2015,06,28,16,37,28.60
2015,06,28,16,38,28.40
2015,06,28,16,39,28.30
2015,06,28,16,40,28.30
2015,06,28,16,41,28.20
2015,06,28,16,42,28.10
2015,06,28,16,43,28.10
2015,06,28,16,44,28.00
2015,06,28,16,45,27.90
2015,06,28,16,46,27.90
2015,06,28,16,47,27.80
2015,06,28,16,48,27.70
2015,06,28,16,49,27.60
2015,06,28,16,50,27.60
2015,06,28,16,51,27.50
2015,06,28,16,52,27.40
2015,06,28,16,53,27.30
2015,06,28,16,54,27.20
2015,06,28,16,55,27.20
2015,06,28,16,56,27.10
2015,06,28,16,57,27.00
2015,06,28,16,58,27.00
2015,06,28,16,59,26.90
2015,06,28,17,00,26.80
2015,06,28,17,01,26.80
2015,06,28,17,02,26.70
2015,06,28,17,03,26.70
2015,06,28,17,04,26.70
2015,06,28,17,05,26.60
2015,06,28,17,06,26.60
2015,06,28,17,07,26.60
2015,06,28,17,08,26.60
2015,06,28,17,09,26.60
2015,06,28,17,10,26.50
2015,06,28,17,11,26.50
2015,06,28,17,12,26.40
2015,06,28,17,13,26.40
2015,06,28,17,14,26.40
2015,06,28,17,15,26.40
2015,06,28,17,16,26.40
2015,06,28,17,17,26.40
2015,06,28,17,18,26.30
2015,06,28,17,19,26.30
2015,06,28,17,20,26.30
2015,06,28,17,21,26.30
2015,06,28,17,22,26.30